[[{"header":{"parameterUnit":"m.s-1","parameterCategory":1,"la1":30.2991,"la2":30.254,"lo1":-89.0895,"lo2":-89.0444,"dy":0.0017,"dx":0.0017,"nx":28,"ny":28,"refTime":"2023-08-02T09:00:00:Z","depth":0,"parameterNumber":2,"parameterNumberName":"U-component_of_WINDS"},"data":[0,0,0,0,0,0,0,0,0,0,0,0,0,0,0,0,0,0,0,0,0,0,0,0,0,0,0,0,0,0,0,0,0,0,0,0,0,0,0,0,0,0,0,0,0,0,0,0,0,0,0,0,0,0,0,0,0,0,4.488,4.488,0,4.4895,4.4896,4.4896,4.48,4.4797,4.4794,4.4791,4.4807,4.481,4.4813,0,0,0,0,0,0,0,0,0,0,0,0,0,4.4766,4.4769,4.488,4.488,4.4881,4.4895,4.4896,4.4896,4.48,4.4797,4.4793,4.479,4.4806,4.481,4.4813,0,0,0,0,0,0,0,0,0,0,0,0,0,4.4802,4.477,4.488,4.4834,4.4831,4.4895,4.4896,4.4896,4.4801,4.4797,4.4792,4.4789,4.4805,4.4809,4.4814,4.4923,0,0,4.4827,4.4829,0,0,0,0,0,0,0,0,4.48,4.4807,4.4841,4.4838,4.4833,4.4841,4.4861,4.4905,4.4802,4.4812,4.4791,4.4787,4.4822,4.4825,4.4836,4.4924,4.4924,4.4828,4.483,4.4832,4.4833,0,0,0,0,0,0,0,4.4798,4.4805,4.4886,4.4842,4.4837,4.4813,4.4813,4.4869,4.484,4.4811,4.4804,4.4807,4.4819,4.4832,4.4836,4.4925,4.4827,4.4831,4.4834,4.4836,4.5098,4.5102,0,0,0,0,0,0,4.4802,4.4804,4.4886,4.4887,4.4806,4.4818,4.4819,4.4843,4.4839,4.4834,4.481,4.4802,4.4827,4.4831,4.4836,4.496,4.4832,4.4836,4.4839,4.5094,4.5099,4.5104,0,0,0,0,0,0,4.48,4.481,4.4885,4.4843,4.4851,4.4824,4.4852,4.4845,4.4859,4.4839,4.4833,4.483,4.4824,4.483,4.4901,4.4959,4.4838,4.4842,4.5089,4.5095,4.5101,4.5211,0,0,0,0,0,0,4.4797,4.481,4.4851,4.4845,4.4854,4.495,4.4856,4.4849,4.4867,4.4856,4.4855,4.4851,4.4821,4.4895,4.4906,4.4963,4.4846,4.5083,4.5092,4.5099,4.5202,4.522,4.5236,0,0,0,0,0,4.4793,4.4883,4.4854,4.4864,4.4905,4.4954,4.4959,4.4923,4.4872,4.4912,4.4899,4.4851,4.4953,4.4903,4.4914,4.4974,4.5079,4.5089,4.5099,4.5194,4.5217,4.5236,0,0,0,0,0,0,4.4897,4.4881,4.4849,4.4939,4.4949,4.4938,4.4988,4.4948,4.4972,4.4961,4.4916,4.4916,4.4994,4.4992,4.4938,4.5078,4.5007,4.5019,4.5076,4.5097,4.5114,4.5111,4.485,0,0,0,0,0,4.4931,4.4972,4.4956,4.5037,4.5043,4.5015,4.5035,4.5006,4.5014,4.5018,4.501,4.5019,4.5052,4.5075,4.5105,4.5203,4.5199,4.5249,4.5266,4.5281,4.529,4.5338,4.5359,4.5135,4.5135,4.5135,0,0,4.5,4.4996,4.5025,4.5057,4.5061,4.5103,4.5019,4.5068,4.5098,4.5025,4.509,4.5085,4.5092,4.5176,4.5213,4.5176,4.5352,4.5293,4.5304,4.5306,4.535,4.5371,4.539,4.5142,4.5141,4.514,0,0,4.5146,4.515,4.5215,4.5221,4.5227,4.5208,4.5224,4.5219,4.5212,4.5277,4.5222,4.5258,4.5318,4.5324,4.5335,4.5483,4.5438,4.5495,4.5582,4.5629,4.5646,4.5662,4.571,4.5729,4.5505,4.5506,4.5506,0,4.5231,4.5293,4.5254,4.5306,4.532,4.5256,4.5321,4.5329,4.5345,4.5356,4.5316,4.5387,4.5388,4.547,4.5506,4.5519,4.5533,4.5492,4.5647,4.5662,4.5676,4.5721,4.574,4.5512,4.5511,4.5511,4.551,0,4.5395,4.5439,4.5491,4.5507,4.5528,4.5587,4.5555,4.5581,4.5551,4.5536,4.5602,4.5601,4.5627,4.5646,4.5618,4.5724,4.57,4.5655,4.5582,4.5704,4.5746,4.5764,4.5521,4.5519,4.5517,4.5516,0,0,4.5605,4.5598,4.5618,4.5622,4.5625,4.5657,4.5713,4.5738,4.5759,4.5774,4.5816,4.5868,4.5825,4.5838,4.581,4.5852,4.5964,4.58,4.58,4.5827,4.6076,4.6107,4.6128,4.5936,4.594,4.5942,4.6074,0,4.5745,4.5837,4.5803,4.5897,4.5935,4.5875,4.5922,4.5928,4.5916,4.5946,4.5932,4.5967,4.5911,4.5917,4.5956,4.5942,4.6013,4.5933,4.5973,4.5975,4.5968,4.615,4.6184,4.6308,4.609,4.6093,4.6095,0,4.5919,4.5938,4.6036,4.6028,4.6043,4.6086,4.6105,4.6136,4.6141,4.6129,4.6143,4.6105,4.6157,4.6088,4.6158,4.6104,4.6119,4.6115,4.6119,4.6117,4.6039,4.6149,4.6347,4.6364,4.6122,4.612,4.6118,0,4.6057,4.6107,4.6171,4.6178,4.6172,4.6203,4.6203,4.6204,4.6221,4.6238,4.6248,4.6273,4.6285,4.6304,4.6274,4.6227,4.6347,4.6275,4.6335,4.6336,4.6359,4.6357,4.6557,4.6378,4.6377,4.6377,4.6377,0,4.6213,4.6274,4.6232,4.6271,4.6336,4.6298,4.6364,4.6356,4.6358,4.6393,4.6345,4.6379,4.6339,4.6369,4.6347,4.6405,4.6413,4.6402,4.6395,4.6404,4.6405,4.6409,4.6398,4.6382,4.6381,4.638,4.6379,0,4.6376,4.6351,4.6415,4.6405,4.6403,4.6452,4.6442,4.6477,4.6461,4.6507,4.6515,4.649,4.6523,4.6496,4.6529,4.6514,4.659,4.6573,4.6587,4.6581,4.664,4.6633,4.6846,4.6871,4.668,4.6682,4.6684,0,4.6475,4.6519,4.6513,4.6533,4.6535,4.6568,4.6584,4.6548,4.6567,4.6575,4.6609,4.6638,4.6658,4.6713,4.6698,4.6722,4.6702,4.6775,4.6705,4.6712,4.6697,4.6693,4.6695,4.6788,4.679,4.6792,4.6793,0,4.6651,4.6636,4.6661,4.6682,4.6702,4.6717,4.6728,4.6747,4.671,4.6734,4.6766,4.6782,4.6815,4.6842,4.6862,4.686,4.682,4.6816,4.683,4.6838,4.6842,4.6836,4.6621,4.681,4.6809,4.6807,4.6807,4.6806,4.6782,4.6817,4.6817,4.6846,4.685,4.6861,4.6892,4.688,4.6906,4.6928,4.6907,4.6945,4.6948,4.6968,4.6972,4.7001,4.697,4.6992,4.6997,4.7002,4.7008,4.6842,4.7005,4.7005,4.7004,4.7004,4.7003,0,4.6951,4.6948,4.6975,4.6991,4.7013,4.6975,4.6984,4.7005,4.7039,4.7045,4.7066,4.7102,4.7129,4.7116,4.7139,4.7164,4.7146,4.7171,4.7166,4.7166,4.7036,4.7019,4.7185,4.7185,4.7185,4.7185,4.7185,4.7185,4.7042,4.7098,4.7083,4.7141,4.7137,4.7174,4.7182,4.7191,4.7195,4.7237,4.7258,4.725,4.7247,4.727,4.7292,4.7288,4.7296,4.7327,4.7315,4.7194,4.7175,4.7158,4.7142,4.733,4.7331,4.7442,4.7443,4.7443]},{"header":{"parameterUnit":"m.s-1","parameterCategory":1,"la1":30.2991,"la2":30.254,"lo1":-89.0895,"lo2":-89.0444,"dy":0.0017,"dx":0.0017,"nx":28,"ny":28,"refTime":"2023-08-02T09:00:00:Z","depth":0,"parameterNumber":3,"parameterNumberName":"V-component_of_WINDS"},"data":[0,0,0,0,0,0,0,0,0,0,0,0,0,0,0,0,0,0,0,0,0,0,0,0,0,0,0,0,0,0,0,0,0,0,0,0,0,0,0,0,0,0,0,0,0,0,0,0,0,0,0,0,0,0,0,0,0,0,2.0793,2.0794,0,2.0902,2.0903,2.0905,2.0921,2.092,2.0919,2.0918,2.1032,2.1036,2.104,0,0,0,0,0,0,0,0,0,0,0,0,0,2.0599,2.0602,2.0793,2.0794,2.0795,2.0902,2.0904,2.0905,2.0921,2.092,2.0918,2.0917,2.1031,2.1035,2.104,0,0,0,0,0,0,0,0,0,0,0,0,0,2.0693,2.0603,2.0793,2.0816,2.0819,2.0902,2.0904,2.0905,2.0921,2.092,2.0918,2.0917,2.1029,2.1035,2.1041,2.1108,0,0,2.1059,2.1062,0,0,0,0,0,0,0,0,2.0688,2.07,2.0811,2.0815,2.0818,2.0896,2.0877,2.0973,2.0921,2.0883,2.0918,2.0916,2.0988,2.0998,2.1021,2.1113,2.1118,2.106,2.1063,2.1066,2.1068,0,0,0,0,0,0,0,2.0681,2.0696,2.0836,2.0813,2.0817,2.0822,2.0833,2.0895,2.0943,2.0886,2.0887,2.09,2.099,2.1016,2.1024,2.112,2.106,2.1065,2.1069,2.1071,2.1271,2.1273,0,0,0,0,0,0,2.067,2.069,2.0833,2.0839,2.0748,2.0826,2.084,2.0873,2.0942,2.0951,2.0901,2.09,2.1006,2.1017,2.1028,2.111,2.1066,2.1071,2.1075,2.1269,2.1271,2.1273,0,0,0,0,0,0,2.0666,2.0683,2.0828,2.0765,2.0784,2.0831,2.0869,2.0876,2.0901,2.0953,2.0962,2.0918,2.1005,2.102,2.1088,2.1115,2.1074,2.108,2.1267,2.127,2.1272,2.1275,0,0,0,0,0,0,2.066,2.0681,2.0707,2.0766,2.0787,2.0885,2.087,2.0879,2.0911,2.0911,2.0972,2.0981,2.1005,2.1079,2.1094,2.1122,2.1084,2.1265,2.1268,2.1272,2.1273,2.1278,2.1282,0,0,0,0,0,2.0653,2.0704,2.0708,2.0725,2.082,2.0887,2.0899,2.0926,2.0914,2.094,2.0973,2.0979,2.1109,2.1085,2.1102,2.1133,2.1264,2.1268,2.1271,2.1271,2.1277,2.1282,0,0,0,0,0,0,2.0649,2.0712,2.0717,2.0789,2.0832,2.0889,2.0924,2.0931,2.098,2.0978,2.1009,2.1023,2.1089,2.1118,2.109,2.1201,2.1185,2.1193,2.1179,2.1185,2.119,2.1181,2.1089,0,0,0,0,0,2.0656,2.0704,2.0757,2.0815,2.0837,2.0876,2.0906,2.0923,2.0969,2.0988,2.1026,2.1072,2.1123,2.1156,2.1206,2.1277,2.129,2.1307,2.1311,2.1314,2.132,2.1359,2.1367,2.1286,2.1286,2.1286,0,0,2.0672,2.0712,2.0741,2.0815,2.0851,2.09,2.0892,2.0945,2.0981,2.0996,2.1062,2.1091,2.1144,2.1214,2.1246,2.124,2.1346,2.1319,2.1322,2.1326,2.1364,2.1372,2.1378,2.1289,2.1288,2.1288,0,0,2.0725,2.0761,2.0812,2.0848,2.0901,2.0927,2.0939,2.0995,2.1015,2.1081,2.1092,2.1137,2.1225,2.1261,2.1291,2.1357,2.1363,2.1372,2.1395,2.1432,2.1438,2.1444,2.1466,2.1474,2.1378,2.1378,2.1378,0,2.0738,2.0812,2.0838,2.089,2.0922,2.0936,2.0988,2.1022,2.1089,2.1111,2.1103,2.1211,2.1248,2.1326,2.1341,2.1366,2.138,2.1365,2.1435,2.1441,2.1447,2.1469,2.1477,2.1379,2.1379,2.1378,2.1378,0,2.0825,2.0876,2.0911,2.0974,2.101,2.1062,2.1096,2.1129,2.1142,2.1169,2.1235,2.1279,2.1338,2.1358,2.1372,2.1437,2.1431,2.1429,2.1414,2.1455,2.1476,2.1484,2.1379,2.1379,2.1379,2.1379,0,0,2.0879,2.0954,2.0967,2.0995,2.1054,2.1094,2.1146,2.1202,2.123,2.1276,2.132,2.1393,2.139,2.1424,2.1442,2.1475,2.1522,2.1469,2.147,2.1476,2.1596,2.1597,2.1606,2.1527,2.1529,2.153,2.1591,0,2.0939,2.1031,2.1055,2.1134,2.118,2.1194,2.1239,2.1281,2.1307,2.135,2.138,2.143,2.1424,2.1444,2.1477,2.151,2.1547,2.1506,2.1568,2.157,2.1554,2.1617,2.1618,2.1673,2.1599,2.1601,2.1602,0,2.102,2.1066,2.1149,2.12,2.1221,2.1261,2.1313,2.1355,2.1402,2.1418,2.1455,2.147,2.1525,2.1507,2.1582,2.1553,2.1581,2.16,2.1603,2.1609,2.1588,2.1624,2.1692,2.17,2.1615,2.1614,2.1613,0,2.105,2.1132,2.1192,2.1216,2.1278,2.1305,2.1333,2.1378,2.1409,2.1456,2.1476,2.1529,2.1557,2.1597,2.1625,2.161,2.1698,2.1683,2.1713,2.1712,2.1731,2.1729,2.1803,2.1749,2.1749,2.1749,2.1749,0,2.1114,2.1163,2.1206,2.1243,2.1298,2.1326,2.1381,2.1409,2.1448,2.1491,2.1507,2.1546,2.1581,2.1625,2.1648,2.1706,2.1719,2.1734,2.1739,2.1732,2.173,2.175,2.1747,2.1751,2.1751,2.175,2.175,0,2.1156,2.1187,2.1253,2.1305,2.1319,2.1358,2.1403,2.144,2.1465,2.1519,2.1533,2.1574,2.1627,2.1658,2.1726,2.1741,2.1805,2.1809,2.1789,2.1791,2.1819,2.1815,2.1907,2.192,2.1859,2.186,2.186,0,2.1194,2.1233,2.1289,2.1317,2.1344,2.1391,2.1423,2.1451,2.1484,2.1539,2.1568,2.1622,2.1666,2.1749,2.1785,2.1837,2.1842,2.187,2.185,2.1841,2.1841,2.1838,2.1841,2.1874,2.1874,2.1875,2.1875,0,2.1258,2.1271,2.1316,2.1365,2.1402,2.1443,2.1484,2.1507,2.1542,2.1578,2.1631,2.1665,2.1733,2.1785,2.1839,2.1868,2.1877,2.1881,2.1891,2.1884,2.1869,2.1876,2.1797,2.1879,2.1878,2.1878,2.1878,2.1878,2.1299,2.1333,2.1377,2.1426,2.1459,2.1497,2.1533,2.1562,2.1607,2.1663,2.1678,2.1733,2.1778,2.1851,2.1881,2.1925,2.1921,2.1935,2.1938,2.1941,2.1941,2.1863,2.1935,2.1935,2.1935,2.1935,2.1935,0,2.1363,2.1391,2.1436,2.1491,2.153,2.1534,2.1579,2.1611,2.1659,2.17,2.1743,2.1803,2.1854,2.1893,2.1945,2.1973,2.1978,2.1986,2.1984,2.199,2.1942,2.1928,2.198,2.198,2.198,2.198,2.198,2.198,2.14,2.1457,2.1475,2.1549,2.1578,2.1631,2.1656,2.1691,2.1723,2.179,2.1831,2.1856,2.1896,2.1951,2.1998,2.2008,2.2026,2.2032,2.2043,2.1998,2.1993,2.1989,2.1975,2.2036,2.2036,2.2087,2.2087,2.2088]}]]